Location: *
(41.7492°S, 135.4150°W)
Time: 00:05:48
(UTC+00:00)

Cosmos 1743 Rocket - Pass Details

Date: 20 September 2021
Orbit: 605 x 631 km, 82.6° (Epoch: 25 October)

Event Time Altitude Azimuth Distance (km) Brightness Sun altitude
Exits shadow 13:12:05 45° 297° (WNW) 877 3.8 -19.5°
Maximum altitude 13:12:56 52° 259° (W) 799 3.7 -19.4°
Drops below altitude 10° 13:17:21 10° 182° (S) 2,038 6.4 -18.6°
Sets 13:19:40 0° 177° (S) 2,950 7.3 -18.2°
